sat.trackr.live / text

‹ back to catalog

STARLINK-36926

NORAD 67999 · 2026-039P

PAYLOAD ACTIVE UNKNOWN

§ Identity

Operator
Country
US
Launch date
2026-02-27
Launch site
AFETR
Launch vehicle
Mass (kg)
RCS (m²)

Purposes: comms

External: N2YO · Heavens-Above · Gunter

§ Orbital elements

Epoch: 2026-09-20T01:19:13.543104Z

Period
94.27 min
Inclination
43.0012°
Eccentricity
0.0001849
Mean motion
15.27586876 rev/d
Perigee alt
481.8 km
Apogee alt
484.3 km
Semi-major
6,861.2 km
B*
5.0999e-4
RAAN
30.8641°
Arg perigee
281.7332°
Mean anomaly
78.3312°
Rev number
3,143

§ Raw data

STARLINK-369261 67999U 26039P   26263.05501786  .00013801  00000+0  50999-3 0  99982 67999  43.0012  30.8641 0001849 281.7332  78.3312 15.27586876 31432

JSON: /api/v1/satellites/67999 · /tle

For live sub-satellite position, see the globe view (requires WebGL).

§ Visibility from observer

Set your observer location to see the next 7 days of passes ≥ 10°. The values pass through the URL so the page stays shareable.

No JS? Fill the form by hand. The geolocation button needs JavaScript.